Flag for U.S.A. Weather past 2 weeks in Pullman, Washington, U.S.A.

Now
65 °F

Sunny.


Feels Like: 65 °F
Forecast: 40 / 65 °F
Wind: 9 mph from West

Location: Pullman / Moscow Regional Airport

Current Time: Apr 19, 2015 at 2:30:38 PM

Latest Report: Apr 19, 2015 at 1:53 PM


Visibility: 10 mi

Pressure: 30.12 "Hg

Humidity: 26%

Dew point: 29 °F

Location of PullmanLocation

Historic Weather in Pullman — Graph

°F

Pullman temperature yesterday

Maximum temperature yesterday: 64 °F (at 1:53 PM)
Minimum temperature yesterday: 35 °F (at 5:53 AM)
Average temperature yesterday: 51 °F

Past Weeks' High & Low Weather Summary

 TemperatureHumidityPressure
High66 °F (Apr 17, 3:53 PM)97% (Apr 6, 3:56 AM)30.47 "Hg (Apr 6, 3:56 AM)
Low28 °F (Apr 5, 6:53 AM)20% (Apr 18, 1:53 PM)29.65 "Hg (Apr 6, 3:56 AM)
Average45 °F63%30.05 "Hg
* Reported Apr 4 12:53 PM — Apr 19 12:53 PM, Pullman, Weather by CustomWeather, © 2015

Note: Actual official high and low records may vary slightly from our data, if they occured in-between our weather recording intervals... More about our weather records

Advertising

Pullman weather history for previous 24 hours

 ConditionsComfort  
Time TempWeatherWind HumidityBarometerVisibility
12:53 PM
Sun, Apr 19
64 °FSunny.12 mph27%30.14 "Hg10 mi
11:53 AM62 °FSunny.3 mph29%30.15 "Hg10 mi
10:53 AM59 °FSunny.No wind31%30.16 "Hg10 mi
9:53 AM56 °FSunny.No wind39%30.18 "Hg10 mi
8:53 AM53 °FSunny.No wind43%30.19 "Hg10 mi
7:53 AM46 °FSunny.No wind58%30.20 "Hg10 mi
6:53 AM34 °FClear.No wind79%30.22 "Hg10 mi
5:53 AM33 °FClear.No wind78%30.21 "Hg10 mi
4:53 AM34 °FClear.No wind76%30.21 "Hg10 mi
3:53 AM34 °FClear.No wind76%30.20 "Hg10 mi
2:53 AM34 °FClear.No wind76%30.20 "Hg10 mi
1:53 AM35 °FClear.No wind75%30.20 "Hg10 mi
12:53 AM36 °FClear.No wind75%30.21 "Hg10 mi
11:53 PM
Sat, Apr 18
42 °FClear.No wind60%30.20 "Hg10 mi
10:53 PM44 °FClear.No wind55%30.20 "Hg10 mi
9:53 PM52 °FClear.9 mph38%30.19 "Hg10 mi
8:53 PM53 °FClear.9 mph35%30.20 "Hg10 mi
7:53 PM55 °FSunny.8 mph31%30.20 "Hg10 mi
6:53 PM60 °FSunny.13 mph24%30.20 "Hg10 mi
5:53 PM63 °FSunny.14 mph21%30.22 "Hg10 mi
4:53 PM64 °FSunny.14 mph23%30.22 "Hg10 mi
3:53 PM64 °FSunny.13 mph25%30.24 "Hg10 mi
2:53 PM63 °FSunny.13 mph26%30.26 "Hg10 mi
Weather by CustomWeather, © 2015

See weather overviewHow to use our weather pages